Data supplied by UK-AIR on 12/5/2022
All Data GMT hour ending 
Status: R =Ratified P=Provisional,P*=As supplied
,,Fort William,,,,,,,,,,,,,,,,,,,,,,,
Date,time,"Nitric oxide",status,unit,"Nitrogen dioxide",status,unit,"Nitrogen oxides as nitrogen dioxide",status,unit,"Ozone",status,unit
 
01-01-2021,01:00,1.06629,R,ugm-3,7.05700,R,ugm-3,8.69196,R,ugm-3,27.40761,R,ugm-3
01-01-2021,02:00,0.99965,R,ugm-3,9.21334,R,ugm-3,10.74611,R,ugm-3,21.95270,R,ugm-3
01-01-2021,03:00,0.69976,R,ugm-3,9.36759,R,ugm-3,10.44054,R,ugm-3,20.50582,R,ugm-3
01-01-2021,04:00,0.33322,R,ugm-3,4.32737,R,ugm-3,4.83830,R,ugm-3,26.14367,R,ugm-3
01-01-2021,05:00,0.66643,R,ugm-3,5.19154,R,ugm-3,6.21339,R,ugm-3,24.59700,R,ugm-3
01-01-2021,06:00,0.49983,R,ugm-3,4.73399,R,ugm-3,5.50038,R,ugm-3,26.24346,R,ugm-3
01-01-2021,07:00,0.53315,R,ugm-3,7.99332,R,ugm-3,8.81080,R,ugm-3,17.66195,R,ugm-3
01-01-2021,08:00,1.46616,R,ugm-3,12.36868,R,ugm-3,14.61675,R,ugm-3,12.42323,R,ugm-3
01-01-2021,09:00,1.09962,R,ugm-3,7.68496,R,ugm-3,9.37102,R,ugm-3,19.55786,R,ugm-3
01-01-2021,10:00,1.56612,R,ugm-3,7.42803,R,ugm-3,9.82938,R,ugm-3,22.40173,R,ugm-3
01-01-2021,11:00,3.79867,R,ugm-3,12.00076,R,ugm-3,17.82531,R,ugm-3,12.87227,R,ugm-3
01-01-2021,12:00,4.56507,R,ugm-3,12.55723,R,ugm-3,19.55691,R,ugm-3,12.57291,R,ugm-3
01-01-2021,13:00,4.09857,R,ugm-3,10.31862,R,ugm-3,16.60300,R,ugm-3,12.52302,R,ugm-3
01-01-2021,14:00,8.69696,R,ugm-3,14.82883,R,ugm-3,28.16399,R,ugm-3,10.37764,R,ugm-3
01-01-2021,15:00,7.69731,R,ugm-3,19.11180,R,ugm-3,30.91418,R,ugm-3,11.62495,R,ugm-3
01-01-2021,16:00,10.89619,R,ugm-3,26.07347,R,ugm-3,42.78074,R,ugm-3,5.93721,R,ugm-3
01-01-2021,17:00,17.56053,R,ugm-3,27.41595,R,ugm-3,54.34172,R,ugm-3,3.19312,R,ugm-3
01-01-2021,18:00,18.02704,R,ugm-3,24.71441,R,ugm-3,52.35548,R,ugm-3,2.39484,R,ugm-3
01-01-2021,19:00,18.42690,R,ugm-3,24.76338,R,ugm-3,53.01756,R,ugm-3,3.49248,R,ugm-3
01-01-2021,20:00,10.16312,R,ugm-3,23.37780,R,ugm-3,38.96103,R,ugm-3,3.79183,R,ugm-3
01-01-2021,21:00,6.66434,R,ugm-3,20.49195,R,ugm-3,30.71046,R,ugm-3,6.58581,R,ugm-3
01-01-2021,22:00,5.19818,R,ugm-3,23.55489,R,ugm-3,31.52533,R,ugm-3,3.69205,R,ugm-3
01-01-2021,23:00,4.26518,R,ugm-3,21.72600,R,ugm-3,28.26585,R,ugm-3,5.73764,R,ugm-3
01-01-2021,24:00,1.99930,R,ugm-3,18.01924,R,ugm-3,21.08479,R,ugm-3,10.32775,R,ugm-3
02-01-2021,01:00,0.71126,R,ugm-3,11.00448,R,ugm-3,12.09507,R,ugm-3,18.62653,R,ugm-3
02-01-2021,02:00,1.00022,R,ugm-3,8.60787,R,ugm-3,10.14152,R,ugm-3,15.43341,R,ugm-3
02-01-2021,03:00,0.66681,R,ugm-3,10.59699,R,ugm-3,11.61942,R,ugm-3,12.72259,R,ugm-3
02-01-2021,04:00,0.50011,R,ugm-3,9.27277,R,ugm-3,10.03959,R,ugm-3,11.87442,R,ugm-3
02-01-2021,05:00,0.86685,R,ugm-3,9.83160,R,ugm-3,11.16076,R,ugm-3,9.52947,R,ugm-3
02-01-2021,06:00,1.16692,R,ugm-3,8.45419,R,ugm-3,10.24344,R,ugm-3,10.77678,R,ugm-3
02-01-2021,07:00,1.10024,R,ugm-3,8.76028,R,ugm-3,10.44729,R,ugm-3,8.78108,R,ugm-3
02-01-2021,08:00,2.90063,R,ugm-3,13.54216,R,ugm-3,17.98972,R,ugm-3,5.53807,R,ugm-3
02-01-2021,09:00,4.00086,R,ugm-3,12.36477,R,ugm-3,18.49935,R,ugm-3,8.78108,R,ugm-3
02-01-2021,10:00,4.36761,R,ugm-3,15.21692,R,ugm-3,21.91383,R,ugm-3,9.08044,R,ugm-3
02-01-2021,11:00,6.73479,R,ugm-3,16.22487,R,ugm-3,26.55140,R,ugm-3,16.01549,R,ugm-3
02-01-2021,12:00,5.50119,R,ugm-3,8.58640,R,ugm-3,17.02144,R,ugm-3,28.58840,R,ugm-3
02-01-2021,13:00,3.13401,R,ugm-3,12.26698,R,ugm-3,17.07240,R,ugm-3,26.79227,R,ugm-3
02-01-2021,14:00,3.43408,R,ugm-3,12.16363,R,ugm-3,17.42914,R,ugm-3,27.54066,R,ugm-3
02-01-2021,15:00,4.06755,R,ugm-3,16.28856,R,ugm-3,22.52537,R,ugm-3,25.84432,R,ugm-3
02-01-2021,16:00,3.70080,R,ugm-3,18.83843,R,ugm-3,24.51291,R,ugm-3,21.20431,R,ugm-3
02-01-2021,17:00,5.36783,R,ugm-3,21.37859,R,ugm-3,29.60915,R,ugm-3,17.56216,R,ugm-3
02-01-2021,18:00,9.16865,R,ugm-3,32.62315,R,ugm-3,46.68154,R,ugm-3,8.93076,R,ugm-3
02-01-2021,19:00,1.43364,R,ugm-3,14.51744,R,ugm-3,16.71566,R,ugm-3,23.34969,R,ugm-3
02-01-2021,20:00,6.10132,R,ugm-3,19.89719,R,ugm-3,29.25241,R,ugm-3,15.16732,R,ugm-3
02-01-2021,21:00,4.96774,R,ugm-3,19.49490,R,ugm-3,27.11199,R,ugm-3,18.70969,R,ugm-3
02-01-2021,22:00,0.50011,R,ugm-3,5.70540,R,ugm-3,6.47222,R,ugm-3,27.69034,R,ugm-3
02-01-2021,23:00,1.06690,R,ugm-3,9.37199,R,ugm-3,11.00788,R,ugm-3,22.85077,R,ugm-3
02-01-2021,24:00,0.76683,R,ugm-3,2.95216,R,ugm-3,4.12795,R,ugm-3,31.18281,R,ugm-3
03-01-2021,01:00,0.31136,R,ugm-3,2.99028,R,ugm-3,3.46768,R,ugm-3,32.59643,R,ugm-3
03-01-2021,02:00,0.70055,R,ugm-3,4.22936,R,ugm-3,5.30351,R,ugm-3,28.07285,R,ugm-3
03-01-2021,03:00,0.43367,R,ugm-3,3.72064,R,ugm-3,4.38560,R,ugm-3,27.49077,R,ugm-3
03-01-2021,04:00,0.23352,R,ugm-3,2.29371,R,ugm-3,2.65176,R,ugm-3,29.93550,R,ugm-3
03-01-2021,05:00,0.56711,R,ugm-3,3.46505,R,ugm-3,4.33460,R,ugm-3,26.49292,R,ugm-3
03-01-2021,06:00,0.43367,R,ugm-3,5.60747,R,ugm-3,6.27242,R,ugm-3,27.98969,R,ugm-3
03-01-2021,07:00,0.60047,R,ugm-3,3.46489,R,ugm-3,4.38560,R,ugm-3,37.61895,R,ugm-3
03-01-2021,08:00,0.73391,R,ugm-3,4.43318,R,ugm-3,5.55849,R,ugm-3,39.91400,R,ugm-3
03-01-2021,09:00,0.96742,R,ugm-3,9.02168,R,ugm-3,10.50504,R,ugm-3,35.82282,R,ugm-3
03-01-2021,10:00,1.63461,R,ugm-3,13.65915,R,ugm-3,16.16552,R,ugm-3,30.73378,R,ugm-3
03-01-2021,11:00,1.30102,R,ugm-3,10.34600,R,ugm-3,12.34087,R,ugm-3,30.03529,R,ugm-3
03-01-2021,12:00,1.30102,R,ugm-3,6.06240,R,ugm-3,8.05726,R,ugm-3,36.52131,R,ugm-3
03-01-2021,13:00,1.30102,R,ugm-3,4.37955,R,ugm-3,6.37441,R,ugm-3,39.21551,R,ugm-3
03-01-2021,14:00,1.00078,R,ugm-3,3.25905,R,ugm-3,4.79356,R,ugm-3,38.91615,R,ugm-3
03-01-2021,15:00,1.96820,R,ugm-3,6.82423,R,ugm-3,9.84210,R,ugm-3,30.33464,R,ugm-3
03-01-2021,16:00,4.00313,R,ugm-3,10.28246,R,ugm-3,16.42049,R,ugm-3,27.88991,R,ugm-3
03-01-2021,17:00,1.50117,R,ugm-3,6.01047,R,ugm-3,8.31224,R,ugm-3,30.18496,R,ugm-3
03-01-2021,18:00,1.73469,R,ugm-3,8.76313,R,ugm-3,11.42295,R,ugm-3,27.09163,R,ugm-3
03-01-2021,19:00,2.80219,R,ugm-3,14.72463,R,ugm-3,19.02125,R,ugm-3,17.06324,R,ugm-3
03-01-2021,20:00,4.60359,R,ugm-3,15.37920,R,ugm-3,22.43794,R,ugm-3,16.56431,R,ugm-3
03-01-2021,21:00,5.37086,R,ugm-3,18.43535,R,ugm-3,26.67055,R,ugm-3,10.02839,R,ugm-3
03-01-2021,22:00,3.70289,R,ugm-3,19.15703,R,ugm-3,24.83472,R,ugm-3,9.03054,R,ugm-3
03-01-2021,23:00,1.43445,R,ugm-3,11.97723,R,ugm-3,14.17670,R,ugm-3,17.76173,R,ugm-3
03-01-2021,24:00,1.50117,R,ugm-3,12.74185,R,ugm-3,15.04362,R,ugm-3,12.87227,R,ugm-3
04-01-2021,01:00,0.89009,R,ugm-3,8.50068,R,ugm-3,9.86546,R,ugm-3,15.10080,R,ugm-3
04-01-2021,02:00,1.46864,R,ugm-3,8.61713,R,ugm-3,10.86902,R,ugm-3,11.44201,R,ugm-3
04-01-2021,03:00,0.46730,R,ugm-3,6.93773,R,ugm-3,7.65424,R,ugm-3,15.56646,R,ugm-3
04-01-2021,04:00,0.93459,R,ugm-3,6.32328,R,ugm-3,7.75630,R,ugm-3,10.17807,R,ugm-3
04-01-2021,05:00,0.50067,R,ugm-3,3.92691,R,ugm-3,4.69460,R,ugm-3,24.49722,R,ugm-3
04-01-2021,06:00,0.70094,R,ugm-3,4.99760,R,ugm-3,6.07236,R,ugm-3,26.09378,R,ugm-3
04-01-2021,07:00,0.86783,R,ugm-3,6.17049,R,ugm-3,7.50115,R,ugm-3,22.70109,R,ugm-3
04-01-2021,08:00,13.91871,R,ugm-3,23.92033,R,ugm-3,45.26206,R,ugm-3,5.13893,R,ugm-3
04-01-2021,09:00,4.57281,R,ugm-3,19.06389,R,ugm-3,26.07544,R,ugm-3,15.06754,R,ugm-3
04-01-2021,10:00,12.21642,R,ugm-3,26.12225,R,ugm-3,44.85383,R,ugm-3,6.28646,R,ugm-3
04-01-2021,11:00,29.70660,R,ugm-3,26.50240,R,ugm-3,72.05189,R,ugm-3,4.34065,R,ugm-3
04-01-2021,12:00,26.70256,R,ugm-3,27.58758,R,ugm-3,68.53094,R,ugm-3,6.68560,R,ugm-3
04-01-2021,13:00,29.23931,R,ugm-3,29.46415,R,ugm-3,74.29713,R,ugm-3,7.98280,R,ugm-3
04-01-2021,14:00,22.89745,R,ugm-3,28.31918,R,ugm-3,63.42811,R,ugm-3,10.52732,R,ugm-3
04-01-2021,15:00,7.67699,R,ugm-3,18.64162,R,ugm-3,30.41284,R,ugm-3,17.86152,R,ugm-3
04-01-2021,16:00,4.43930,R,ugm-3,21.92207,R,ugm-3,28.72891,R,ugm-3,16.26496,R,ugm-3
04-01-2021,17:00,27.90418,R,ugm-3,36.10386,R,ugm-3,78.88967,R,ugm-3,4.34065,R,ugm-3
04-01-2021,18:00,37.65062,R,ugm-3,34.83511,R,ugm-3,92.56525,R,ugm-3,3.34280,R,ugm-3
04-01-2021,19:00,19.09233,R,ugm-3,29.25490,R,ugm-3,58.52940,R,ugm-3,4.34065,R,ugm-3
04-01-2021,20:00,19.82665,R,ugm-3,30.17009,R,ugm-3,60.57053,R,ugm-3,4.44043,R,ugm-3
04-01-2021,21:00,5.94132,R,ugm-3,21.60911,R,ugm-3,30.71901,R,ugm-3,8.13248,R,ugm-3
04-01-2021,22:00,1.66891,R,ugm-3,10.55530,R,ugm-3,13.11426,R,ugm-3,14.91786,R,ugm-3
04-01-2021,23:00,2.83715,R,ugm-3,13.76480,R,ugm-3,18.11503,R,ugm-3,12.47313,R,ugm-3
04-01-2021,24:00,0.70094,R,ugm-3,7.85518,R,ugm-3,8.92994,R,ugm-3,17.41248,R,ugm-3
05-01-2021,01:00,0.57888,R,ugm-3,6.12480,R,ugm-3,7.01240,R,ugm-3,22.21879,R,ugm-3
05-01-2021,02:00,0.48982,R,ugm-3,2.31262,R,ugm-3,3.06367,R,ugm-3,28.47199,R,ugm-3
05-01-2021,03:00,0.43416,R,ugm-3,4.33829,R,ugm-3,5.00400,R,ugm-3,26.99184,R,ugm-3
05-01-2021,04:00,0.46756,R,ugm-3,3.62329,R,ugm-3,4.34020,R,ugm-3,24.69679,R,ugm-3
05-01-2021,05:00,0.23378,R,ugm-3,3.36901,R,ugm-3,3.72747,R,ugm-3,31.23271,R,ugm-3
05-01-2021,06:00,0.53435,R,ugm-3,3.67405,R,ugm-3,4.49338,R,ugm-3,35.37378,R,ugm-3
05-01-2021,07:00,6.04487,R,ugm-3,12.22810,R,ugm-3,21.49676,R,ugm-3,26.19356,R,ugm-3
05-01-2021,08:00,21.47430,R,ugm-3,31.86984,R,ugm-3,64.79664,R,ugm-3,1.94581,R,ugm-3
05-01-2021,09:00,40.37703,R,ugm-3,36.17796,R,ugm-3,98.08853,R,ugm-3,2.89377,R,ugm-3
05-01-2021,10:00,44.05070,R,ugm-3,32.94495,R,ugm-3,100.48841,R,ugm-3,3.04344,R,ugm-3
05-01-2021,11:00,44.51826,R,ugm-3,30.95150,R,ugm-3,99.21188,R,ugm-3,2.74409,R,ugm-3
05-01-2021,12:00,35.00010,R,ugm-3,31.14655,R,ugm-3,84.81263,R,ugm-3,5.78753,R,ugm-3
05-01-2021,13:00,24.71381,R,ugm-3,24.40066,R,ugm-3,62.29464,R,ugm-3,10.77678,R,ugm-3
05-01-2021,14:00,29.48959,R,ugm-3,31.27291,R,ugm-3,76.48965,R,ugm-3,10.17807,R,ugm-3
05-01-2021,15:00,17.36646,R,ugm-3,28.21151,R,ugm-3,54.83971,R,ugm-3,11.27571,R,ugm-3
05-01-2021,16:00,40.87798,R,ugm-3,35.35878,R,ugm-3,98.03747,R,ugm-3,2.64430,R,ugm-3
05-01-2021,17:00,55.83986,R,ugm-3,39.68423,R,ugm-3,125.30415,R,ugm-3,0.99785,R,ugm-3
05-01-2021,18:00,44.48486,R,ugm-3,34.47487,R,ugm-3,102.68404,R,ugm-3,1.49678,R,ugm-3
05-01-2021,19:00,39.70908,R,ugm-3,31.94282,R,ugm-3,92.82923,R,ugm-3,1.74624,R,ugm-3
05-01-2021,20:00,21.47430,R,ugm-3,27.22328,R,ugm-3,60.15007,R,ugm-3,3.69205,R,ugm-3
05-01-2021,21:00,7.24716,R,ugm-3,20.75002,R,ugm-3,31.86218,R,ugm-3,5.43828,R,ugm-3
05-01-2021,22:00,13.59260,R,ugm-3,22.15183,R,ugm-3,42.99352,R,ugm-3,4.24086,R,ugm-3
05-01-2021,23:00,7.91510,R,ugm-3,18.14297,R,ugm-3,30.27928,R,ugm-3,3.14323,R,ugm-3
05-01-2021,24:00,5.31013,R,ugm-3,16.77577,R,ugm-3,24.91786,R,ugm-3,4.68990,R,ugm-3
06-01-2021,01:00,0.93565,R,ugm-3,7.28543,R,ugm-3,8.72006,R,ugm-3,10.84330,R,ugm-3
06-01-2021,02:00,1.40347,R,ugm-3,10.82595,R,ugm-3,12.97791,R,ugm-3,8.18237,R,ugm-3
06-01-2021,03:00,1.53713,R,ugm-3,7.96411,R,ugm-3,10.32101,R,ugm-3,13.27141,R,ugm-3
06-01-2021,04:00,0.83540,R,ugm-3,6.33210,R,ugm-3,7.61302,R,ugm-3,14.16947,R,ugm-3
06-01-2021,05:00,1.00248,R,ugm-3,5.71826,R,ugm-3,7.25537,R,ugm-3,14.46883,R,ugm-3
06-01-2021,06:00,1.67080,R,ugm-3,8.16792,R,ugm-3,10.72976,R,ugm-3,11.42538,R,ugm-3
06-01-2021,07:00,3.54208,R,ugm-3,13.62699,R,ugm-3,19.05811,R,ugm-3,8.13248,R,ugm-3
06-01-2021,08:00,52.09536,R,ugm-3,29.71845,R,ugm-3,109.59688,R,ugm-3,0.39914,R,ugm-3
06-01-2021,09:00,67.39983,R,ugm-3,29.29536,R,ugm-3,132.64033,R,ugm-3,0.14968,R,ugm-3
06-01-2021,10:00,78.42707,R,ugm-3,30.16791,R,ugm-3,150.42108,R,ugm-3,1.39699,R,ugm-3
06-01-2021,11:00,61.21789,R,ugm-3,27.58459,R,ugm-3,121.45072,R,ugm-3,3.34280,R,ugm-3
06-01-2021,12:00,44.94436,R,ugm-3,25.15055,R,ugm-3,94.06427,R,ugm-3,3.74194,R,ugm-3
06-01-2021,13:00,43.47406,R,ugm-3,27.14950,R,ugm-3,93.80880,R,ugm-3,4.98925,R,ugm-3
06-01-2021,14:00,20.58418,R,ugm-3,22.29123,R,ugm-3,53.85320,R,ugm-3,7.73334,R,ugm-3
06-01-2021,15:00,25.22899,R,ugm-3,27.58516,R,ugm-3,66.26907,R,ugm-3,6.53592,R,ugm-3
06-01-2021,16:00,43.97530,R,ugm-3,36.44649,R,ugm-3,103.87434,R,ugm-3,4.14108,R,ugm-3
06-01-2021,17:00,22.92330,R,ugm-3,32.55114,R,ugm-3,67.69970,R,ugm-3,3.34280,R,ugm-3
06-01-2021,18:00,62.15354,R,ugm-3,38.25926,R,ugm-3,133.56002,R,ugm-3,2.19527,R,ugm-3
06-01-2021,19:00,43.37381,R,ugm-3,33.53669,R,ugm-3,100.04228,R,ugm-3,4.39054,R,ugm-3
06-01-2021,20:00,5.17946,R,ugm-3,19.49581,R,ugm-3,27.43754,R,ugm-3,16.31485,R,ugm-3
06-01-2021,21:00,1.90471,R,ugm-3,8.98442,R,ugm-3,11.90493,R,ugm-3,29.83572,R,ugm-3
06-01-2021,22:00,0.50124,R,ugm-3,5.10727,R,ugm-3,5.87582,R,ugm-3,34.02669,R,ugm-3
06-01-2021,23:00,0.43441,R,ugm-3,3.16598,R,ugm-3,3.83206,R,ugm-3,37.21981,R,ugm-3
06-01-2021,24:00,0.26733,R,ugm-3,2.09372,R,ugm-3,2.50361,R,ugm-3,39.81422,R,ugm-3
07-01-2021,01:00,0.26748,R,ugm-3,2.31665,R,ugm-3,2.72678,R,ugm-3,36.12217,R,ugm-3
07-01-2021,02:00,0.57954,R,ugm-3,6.13284,R,ugm-3,7.02145,R,ugm-3,23.54926,R,ugm-3
07-01-2021,03:00,0.43465,R,ugm-3,5.21316,R,ugm-3,5.87961,R,ugm-3,23.69894,R,ugm-3
07-01-2021,04:00,0.40122,R,ugm-3,6.69598,R,ugm-3,7.31117,R,ugm-3,19.90711,R,ugm-3
07-01-2021,05:00,0.73556,R,ugm-3,9.76221,R,ugm-3,10.89006,R,ugm-3,14.36904,R,ugm-3
07-01-2021,06:00,0.83587,R,ugm-3,11.39786,R,ugm-3,12.67951,R,ugm-3,13.72044,R,ugm-3
07-01-2021,07:00,1.03648,R,ugm-3,9.40307,R,ugm-3,10.99232,R,ugm-3,16.11528,R,ugm-3
07-01-2021,08:00,0.66870,R,ugm-3,7.25726,R,ugm-3,8.28258,R,ugm-3,19.95700,R,ugm-3
07-01-2021,09:00,0.26748,R,ugm-3,8.99725,R,ugm-3,9.40738,R,ugm-3,22.00259,R,ugm-3
07-01-2021,10:00,1.40426,R,ugm-3,14.15636,R,ugm-3,16.30953,R,ugm-3,19.30840,R,ugm-3
07-01-2021,11:00,2.00608,R,ugm-3,10.47272,R,ugm-3,13.54867,R,ugm-3,20.45593,R,ugm-3
07-01-2021,12:00,1.43769,R,ugm-3,6.99844,R,ugm-3,9.20287,R,ugm-3,21.65335,R,ugm-3
07-01-2021,13:00,2.64134,R,ugm-3,9.85656,R,ugm-3,13.90656,R,ugm-3,18.60990,R,ugm-3
07-01-2021,14:00,6.11855,R,ugm-3,14.13679,R,ugm-3,23.51844,R,ugm-3,12.97205,R,ugm-3
07-01-2021,15:00,5.81764,R,ugm-3,14.59819,R,ugm-3,23.51844,R,ugm-3,10.92646,R,ugm-3
07-01-2021,16:00,10.79941,R,ugm-3,24.59841,R,ugm-3,41.15728,R,ugm-3,4.44043,R,ugm-3
07-01-2021,17:00,9.79637,R,ugm-3,28.02808,R,ugm-3,43.04898,R,ugm-3,4.34065,R,ugm-3
07-01-2021,18:00,5.95138,R,ugm-3,25.12980,R,ugm-3,34.25512,R,ugm-3,13.17162,R,ugm-3
07-01-2021,19:00,0.43465,R,ugm-3,6.44020,R,ugm-3,7.10666,R,ugm-3,51.48906,R,ugm-3
07-01-2021,20:00,0.23404,R,ugm-3,2.96440,R,ugm-3,3.32326,R,ugm-3,61.26799,R,ugm-3
07-01-2021,21:00,0.26748,R,ugm-3,1.73721,R,ugm-3,2.14734,R,ugm-3,60.56950,R,ugm-3
07-01-2021,22:00,0.40122,R,ugm-3,3.11708,R,ugm-3,3.73227,R,ugm-3,61.41767,R,ugm-3
07-01-2021,23:00,0.30091,R,ugm-3,2.09496,R,ugm-3,2.55635,R,ugm-3,63.86240,R,ugm-3
07-01-2021,24:00,0.20061,R,ugm-3,0.81720,R,ugm-3,1.12480,R,ugm-3,65.85810,R,ugm-3
08-01-2021,01:00,0.26763,R,ugm-3,1.15855,R,ugm-3,1.56891,R,ugm-3,62.33236,R,ugm-3
08-01-2021,02:00,0.31223,R,ugm-3,2.04514,R,ugm-3,2.52389,R,ugm-3,57.14354,R,ugm-3
08-01-2021,03:00,0.40144,R,ugm-3,3.52842,R,ugm-3,4.14396,R,ugm-3,51.58885,R,ugm-3
08-01-2021,04:00,0.40144,R,ugm-3,4.60278,R,ugm-3,5.21832,R,ugm-3,51.98799,R,ugm-3
08-01-2021,05:00,0.30108,R,ugm-3,3.17071,R,ugm-3,3.63236,R,ugm-3,56.37853,R,ugm-3
08-01-2021,06:00,0.46835,R,ugm-3,6.39311,R,ugm-3,7.11124,R,ugm-3,48.94454,R,ugm-3
08-01-2021,07:00,1.00361,R,ugm-3,13.04175,R,ugm-3,14.58060,R,ugm-3,38.26755,R,ugm-3
08-01-2021,08:00,5.05149,R,ugm-3,34.61496,R,ugm-3,42.36047,R,ugm-3,14.81807,R,ugm-3
08-01-2021,09:00,22.17971,R,ugm-3,44.31752,R,ugm-3,78.32594,R,ugm-3,8.43183,R,ugm-3
08-01-2021,10:00,24.62182,R,ugm-3,43.69377,R,ugm-3,81.44669,R,ugm-3,5.78753,R,ugm-3
08-01-2021,11:00,16.05771,R,ugm-3,32.62655,R,ugm-3,57.24802,R,ugm-3,12.92216,R,ugm-3
08-01-2021,12:00,16.76023,R,ugm-3,32.21444,R,ugm-3,57.91310,R,ugm-3,13.96990,R,ugm-3
08-01-2021,13:00,12.47818,R,ugm-3,25.73437,R,ugm-3,44.86731,R,ugm-3,25.44518,R,ugm-3
08-01-2021,14:00,5.92128,R,ugm-3,19.51926,R,ugm-3,28.59843,R,ugm-3,34.07658,R,ugm-3
08-01-2021,15:00,12.34436,R,ugm-3,34.99486,R,ugm-3,53.92262,R,ugm-3,25.94410,R,ugm-3
08-01-2021,16:00,20.33976,R,ugm-3,46.52481,R,ugm-3,77.71201,R,ugm-3,10.57721,R,ugm-3
08-01-2021,17:00,15.85699,R,ugm-3,42.75703,R,ugm-3,67.07074,R,ugm-3,8.63140,R,ugm-3
08-01-2021,18:00,12.37782,R,ugm-3,38.01317,R,ugm-3,56.99222,R,ugm-3,10.62710,R,ugm-3
08-01-2021,19:00,12.64544,R,ugm-3,37.04005,R,ugm-3,56.42946,R,ugm-3,8.73119,R,ugm-3
08-01-2021,20:00,5.45293,R,ugm-3,33.12970,R,ugm-3,41.49075,R,ugm-3,8.53162,R,ugm-3
08-01-2021,21:00,2.20793,R,ugm-3,23.01310,R,ugm-3,26.39855,R,ugm-3,18.70969,R,ugm-3
08-01-2021,22:00,2.44211,R,ugm-3,22.39824,R,ugm-3,26.14275,R,ugm-3,13.96990,R,ugm-3
08-01-2021,23:00,2.54247,R,ugm-3,23.16523,R,ugm-3,27.06363,R,ugm-3,13.72044,R,ugm-3
08-01-2021,24:00,0.83634,R,ugm-3,13.40055,R,ugm-3,14.68292,R,ugm-3,21.95270,R,ugm-3
09-01-2021,01:00,0.93723,R,ugm-3,15.08119,R,ugm-3,16.51825,R,ugm-3,18.62653,R,ugm-3
09-01-2021,02:00,1.20501,R,ugm-3,13.86857,R,ugm-3,15.71623,R,ugm-3,16.36474,R,ugm-3
09-01-2021,03:00,0.83681,R,ugm-3,14.94507,R,ugm-3,16.22816,R,ugm-3,16.06539,R,ugm-3
09-01-2021,04:00,0.76987,R,ugm-3,15.20129,R,ugm-3,16.38173,R,ugm-3,14.26926,R,ugm-3
09-01-2021,05:00,0.87028,R,ugm-3,12.12932,R,ugm-3,13.46374,R,ugm-3,23.74883,R,ugm-3
09-01-2021,06:00,1.70709,R,ugm-3,11.30697,R,ugm-3,13.92447,R,ugm-3,34.27615,R,ugm-3
09-01-2021,07:00,0.33472,R,ugm-3,2.25118,R,ugm-3,2.76442,R,ugm-3,55.41394,R,ugm-3
09-01-2021,08:00,1.10459,R,ugm-3,5.31975,R,ugm-3,7.01343,R,ugm-3,54.58240,R,ugm-3
09-01-2021,09:00,0.97070,R,ugm-3,3.47733,R,ugm-3,4.96571,R,ugm-3,54.78197,R,ugm-3
09-01-2021,10:00,0.70292,R,ugm-3,2.60809,R,ugm-3,3.68589,R,ugm-3,59.47186,R,ugm-3
09-01-2021,11:00,0.63598,R,ugm-3,2.04523,R,ugm-3,3.02038,R,ugm-3,60.76907,R,ugm-3
09-01-2021,12:00,1.27195,R,ugm-3,4.24405,R,ugm-3,6.19434,R,ugm-3,58.62369,R,ugm-3
09-01-2021,13:00,1.47279,R,ugm-3,4.55042,R,ugm-3,6.80866,R,ugm-3,58.52390,R,ugm-3
09-01-2021,14:00,1.27195,R,ugm-3,4.60240,R,ugm-3,6.55269,R,ugm-3,59.92089,R,ugm-3
09-01-2021,15:00,1.37237,R,ugm-3,3.78292,R,ugm-3,5.88719,R,ugm-3,59.77122,R,ugm-3
09-01-2021,16:00,0.87028,R,ugm-3,3.11937,R,ugm-3,4.45378,R,ugm-3,61.26799,R,ugm-3
09-01-2021,17:00,0.66945,R,ugm-3,2.30107,R,ugm-3,3.32754,R,ugm-3,63.31358,R,ugm-3
09-01-2021,18:00,1.00417,R,ugm-3,4.39867,R,ugm-3,5.93838,R,ugm-3,63.46326,R,ugm-3
09-01-2021,19:00,0.43514,R,ugm-3,2.76272,R,ugm-3,3.42993,R,ugm-3,64.41122,R,ugm-3
09-01-2021,20:00,0.40167,R,ugm-3,2.55808,R,ugm-3,3.17396,R,ugm-3,63.51315,R,ugm-3
09-01-2021,21:00,0.50209,R,ugm-3,4.96375,R,ugm-3,5.73361,R,ugm-3,63.61294,R,ugm-3
09-01-2021,22:00,0.43514,R,ugm-3,6.19264,R,ugm-3,6.85985,R,ugm-3,60.76907,R,ugm-3
09-01-2021,23:00,0.26778,R,ugm-3,1.02281,R,ugm-3,1.43340,R,ugm-3,71.69552,R,ugm-3
09-01-2021,24:00,0.16736,R,ugm-3,1.79110,R,ugm-3,2.04772,R,ugm-3,67.25509,R,ugm-3
10-01-2021,01:00,0.35724,R,ugm-3,4.16502,R,ugm-3,4.71278,R,ugm-3,56.67788,R,ugm-3
10-01-2021,02:00,0.50237,R,ugm-3,2.50817,R,ugm-3,3.27846,R,ugm-3,67.52118,R,ugm-3
10-01-2021,03:00,0.30142,R,ugm-3,1.89422,R,ugm-3,2.35639,R,ugm-3,67.65423,R,ugm-3
10-01-2021,04:00,0.40190,R,ugm-3,2.55977,R,ugm-3,3.17600,R,ugm-3,63.91229,R,ugm-3
10-01-2021,05:00,0.36840,R,ugm-3,1.58661,R,ugm-3,2.15149,R,ugm-3,61.11831,R,ugm-3
10-01-2021,06:00,0.30142,R,ugm-3,1.94544,R,ugm-3,2.40762,R,ugm-3,60.96864,R,ugm-3
10-01-2021,07:00,0.33491,R,ugm-3,4.09680,R,ugm-3,4.61033,R,ugm-3,58.82326,R,ugm-3
10-01-2021,08:00,0.43539,R,ugm-3,3.73784,R,ugm-3,4.40542,R,ugm-3,58.92304,R,ugm-3
10-01-2021,09:00,0.56935,R,ugm-3,2.81527,R,ugm-3,3.68826,R,ugm-3,61.61724,R,ugm-3
10-01-2021,10:00,0.40190,R,ugm-3,2.25242,R,ugm-3,2.86865,R,ugm-3,61.26799,R,ugm-3
10-01-2021,11:00,1.33965,R,ugm-3,8.75456,R,ugm-3,10.80865,R,ugm-3,55.97939,R,ugm-3
10-01-2021,12:00,1.84202,R,ugm-3,7.98427,R,ugm-3,10.80865,R,ugm-3,56.92734,R,ugm-3
10-01-2021,13:00,1.67456,R,ugm-3,6.19200,R,ugm-3,8.75962,R,ugm-3,55.68003,R,ugm-3
10-01-2021,14:00,0.70332,R,ugm-3,3.42947,R,ugm-3,4.50788,R,ugm-3,60.81896,R,ugm-3
10-01-2021,15:00,0.60284,R,ugm-3,3.32740,R,ugm-3,4.25175,R,ugm-3,71.14671,R,ugm-3
10-01-2021,16:00,0.33491,R,ugm-3,2.09899,R,ugm-3,2.61252,R,ugm-3,72.39402,R,ugm-3
10-01-2021,17:00,0.40190,R,ugm-3,2.09874,R,ugm-3,2.71497,R,ugm-3,70.49810,R,ugm-3
10-01-2021,18:00,0.50237,R,ugm-3,2.09836,R,ugm-3,2.86865,R,ugm-3,68.35273,R,ugm-3
10-01-2021,19:00,0.77030,R,ugm-3,3.27554,R,ugm-3,4.45665,R,ugm-3,68.20305,R,ugm-3
10-01-2021,20:00,0.93776,R,ugm-3,4.04330,R,ugm-3,5.48117,R,ugm-3,67.65423,R,ugm-3
10-01-2021,21:00,0.66983,R,ugm-3,2.81489,R,ugm-3,3.84194,R,ugm-3,67.95359,R,ugm-3
10-01-2021,22:00,0.70332,R,ugm-3,2.76354,R,ugm-3,3.84194,R,ugm-3,68.45251,R,ugm-3
10-01-2021,23:00,1.03823,R,ugm-3,3.17208,R,ugm-3,4.76401,R,ugm-3,68.30283,R,ugm-3
10-01-2021,24:00,0.87077,R,ugm-3,2.76290,R,ugm-3,4.09807,R,ugm-3,71.84520,R,ugm-3
11-01-2021,01:00,0.67020,R,ugm-3,1.91121,R,ugm-3,2.93884,R,ugm-3,73.64133,R,ugm-3
11-01-2021,02:00,0.75956,R,ugm-3,1.15909,R,ugm-3,2.32373,R,ugm-3,72.90957,R,ugm-3
11-01-2021,03:00,0.56967,R,ugm-3,1.43316,R,ugm-3,2.30665,R,ugm-3,71.59574,R,ugm-3
11-01-2021,04:00,0.70371,R,ugm-3,1.53519,R,ugm-3,2.61420,R,ugm-3,70.84735,R,ugm-3
11-01-2021,05:00,0.70371,R,ugm-3,1.58645,R,ugm-3,2.66546,R,ugm-3,70.34843,R,ugm-3
11-01-2021,06:00,0.90477,R,ugm-3,2.20082,R,ugm-3,3.58811,R,ugm-3,69.94929,R,ugm-3
11-01-2021,07:00,0.33510,R,ugm-3,1.17773,R,ugm-3,1.69154,R,ugm-3,71.29638,R,ugm-3
11-01-2021,08:00,0.36861,R,ugm-3,1.99774,R,ugm-3,2.56294,R,ugm-3,70.04907,R,ugm-3
11-01-2021,09:00,1.54146,R,ugm-3,6.50423,R,ugm-3,8.86777,R,ugm-3,65.70842,R,ugm-3
11-01-2021,10:00,0.90477,R,ugm-3,2.76466,R,ugm-3,4.15196,R,ugm-3,68.35273,R,ugm-3
11-01-2021,11:00,1.00530,R,ugm-3,3.63570,R,ugm-3,5.17714,R,ugm-3,71.79531,R,ugm-3
11-01-2021,12:00,1.17285,R,ugm-3,3.84012,R,ugm-3,5.63847,R,ugm-3,72.54370,R,ugm-3
11-01-2021,13:00,1.00530,R,ugm-3,4.60961,R,ugm-3,6.15105,R,ugm-3,70.79746,R,ugm-3
11-01-2021,14:00,1.03881,R,ugm-3,4.76327,R,ugm-3,6.35609,R,ugm-3,69.50025,R,ugm-3
11-01-2021,15:00,1.03881,R,ugm-3,4.86578,R,ugm-3,6.45861,R,ugm-3,69.60004,R,ugm-3
11-01-2021,16:00,0.67020,R,ugm-3,3.89322,R,ugm-3,4.92084,R,ugm-3,67.05552,R,ugm-3
11-01-2021,17:00,0.36861,R,ugm-3,3.33047,R,ugm-3,3.89567,R,ugm-3,63.11401,R,ugm-3
11-01-2021,18:00,0.30159,R,ugm-3,4.30463,R,ugm-3,4.76707,R,ugm-3,65.45896,R,ugm-3
11-01-2021,19:00,0.33510,R,ugm-3,1.74157,R,ugm-3,2.25539,R,ugm-3,62.01638,R,ugm-3
11-01-2021,20:00,0.36861,R,ugm-3,1.58767,R,ugm-3,2.15287,R,ugm-3,60.12046,R,ugm-3
11-01-2021,21:00,0.23457,R,ugm-3,1.02432,R,ugm-3,1.38399,R,ugm-3,62.36563,R,ugm-3
11-01-2021,22:00,0.23457,R,ugm-3,0.97306,R,ugm-3,1.33273,R,ugm-3,59.47186,R,ugm-3
11-01-2021,23:00,0.43563,R,ugm-3,7.07212,R,ugm-3,7.74008,R,ugm-3,48.84476,R,ugm-3
11-01-2021,24:00,0.50265,R,ugm-3,4.71397,R,ugm-3,5.48469,R,ugm-3,50.24175,R,ugm-3
12-01-2021,01:00,0.40235,R,ugm-3,5.67486,R,ugm-3,6.29179,R,ugm-3,36.85393,R,ugm-3
12-01-2021,02:00,0.63705,R,ugm-3,7.38376,R,ugm-3,8.36055,R,ugm-3,25.27887,R,ugm-3
12-01-2021,03:00,0.36882,R,ugm-3,7.07695,R,ugm-3,7.64247,R,ugm-3,23.94840,R,ugm-3
12-01-2021,04:00,0.56999,R,ugm-3,7.84562,R,ugm-3,8.71959,R,ugm-3,22.80087,R,ugm-3
12-01-2021,05:00,0.53646,R,ugm-3,6.25569,R,ugm-3,7.07826,R,ugm-3,21.05464,R,ugm-3
12-01-2021,06:00,4.49287,R,ugm-3,13.11479,R,ugm-3,20.00377,R,ugm-3,14.56861,R,ugm-3
12-01-2021,07:00,2.44761,R,ugm-3,16.55857,R,ugm-3,20.31152,R,ugm-3,8.28216,R,ugm-3
12-01-2021,08:00,15.49036,R,ugm-3,24.46267,R,ugm-3,48.21421,R,ugm-3,2.24516,R,ugm-3
12-01-2021,09:00,54.98741,R,ugm-3,35.70977,R,ugm-3,120.02262,R,ugm-3,-0.24946,R,ugm-3
12-01-2021,10:00,48.78456,R,ugm-3,34.60328,R,ugm-3,109.40523,R,ugm-3,0.64860,R,ugm-3
12-01-2021,11:00,32.69068,R,ugm-3,30.24910,R,ugm-3,80.37412,R,ugm-3,3.89162,R,ugm-3
12-01-2021,12:00,40.46939,R,ugm-3,31.96552,R,ugm-3,94.01772,R,ugm-3,3.69205,R,ugm-3
12-01-2021,13:00,22.26319,R,ugm-3,28.79852,R,ugm-3,62.93494,R,ugm-3,8.83097,R,ugm-3
12-01-2021,14:00,18.40737,R,ugm-3,30.29961,R,ugm-3,58.52385,R,ugm-3,11.07614,R,ugm-3
12-01-2021,15:00,15.72506,R,ugm-3,29.69359,R,ugm-3,53.80501,R,ugm-3,8.78108,R,ugm-3
12-01-2021,16:00,26.62195,R,ugm-3,37.24624,R,ugm-3,78.06599,R,ugm-3,3.09334,R,ugm-3
12-01-2021,17:00,46.57165,R,ugm-3,38.50928,R,ugm-3,109.91815,R,ugm-3,0.94796,R,ugm-3
12-01-2021,18:00,75.00416,R,ugm-3,41.53754,R,ugm-3,156.54232,R,ugm-3,1.04774,R,ugm-3
12-01-2021,19:00,83.18522,R,ugm-3,35.81523,R,ugm-3,163.36412,R,ugm-3,1.44688,R,ugm-3
12-01-2021,20:00,56.96561,R,ugm-3,31.90719,R,ugm-3,119.25324,R,ugm-3,1.24731,R,ugm-3
12-01-2021,21:00,20.58675,R,ugm-3,26.80407,R,ugm-3,58.36997,R,ugm-3,1.54667,R,ugm-3